Location: Haliburton Scout Reserve
(45.0900°N, 78.3200°W)
Time: 02:42:01
(UTC-05:00)

Tiangong - Pass Details

Date: 03 December 2022
Orbit: 383 x 386 km, 41.5° (Epoch: 01 February)

Event Time Altitude Azimuth Distance (km) Brightness Sun altitude
Rises 17:00:52 0° 229° (SW) 2,245 3.6 -5.3°
Reaches altitude 10° 17:03:12 10° 213° (SSW) 1,396 1.8 -5.6°
Drops below altitude 10° 17:08:16 10° 106° (ESE) 1,403 0.3 -6.4°
Enters shadow 17:09:21 - 97° (E) 1,782 0.7 -6.6°
Exits shadow 17:45:25 -73° 69° (ENE) 12,629 5.5 -12.5°
